Retour au catalogue

BREEZE-M DEB

ActifHEO
NORAD 36962·DEBRIS·🇷🇺 Russia

Lancé Feb 28, 2006 depuis Baikonur Cosmodrome

Loading…

Prochains Passages (prochaines 24 heures)

TLE

FraisSource: Space-Track

Époque: Sep 7, 2026, 16:00 UTC

1 36962U 06006CU  26250.66705329  .00028398  00000-0  14248-1 0  9991
2 36962  51.6108  14.8476 3888111 237.2102  79.3934  7.38163465267155

Suivez BREEZE-M DEB en temps réel avec AllMySat

Download on the App Store